DateTimeUTC,F1_A11,F1_S11,BsB_S11,BsG_S11,BsR_S11,BbsB_S11,BbsG_S11,BbsR_S11,BaB_A11,BaG_A11,BaR_A11,Tu_S11,T_S11,Uu_S11,U_S11,P_S11,T1_A11
2021-11-16T13:00:00Z,00000200,21000000,,,,,,,-000.36,-000.10,-000.15,19.3,26.4,,00.0,0636.9,31.0
2021-11-16T13:01:00Z,00000200,21000000,,,,,,,0000.14,-000.06,0000.26,19.4,26.4,,00.0,0636.9,31.0
2021-11-16T13:02:00Z,00000200,21000000,,,,,,,0000.07,0000.34,0000.15,19.4,26.4,,00.0,0636.9,31.0
2021-11-16T13:03:00Z,00000200,61000000,,,,,,,0000.32,0000.04,0000.12,19.4,26.4,,00.0,0636.9,31.0
2021-11-16T13:04:00Z,00000200,41000000,0000.13,0000.23,0000.53,0000.60,0000.20,0000.03,0000.11,0000.17,0000.20,19.5,26.3,,00.0,0637.7,30.9
2021-11-16T13:05:00Z,00000200,01000000,-000.50,0000.52,0000.36,0000.45,-000.01,0000.22,0000.04,0000.17,0000.05,19.5,26.2,,00.0,0637.7,30.9
2021-11-16T13:06:00Z,00000200,01000000,0000.55,0000.44,0000.27,-000.09,0000.09,-000.01,0000.12,0000.01,0000.06,19.4,26.2,,00.0,0637.8,30.9
2021-11-16T13:07:00Z,00000200,01000000,0000.35,0000.11,0000.18,0000.22,0000.38,0000.18,0000.11,0000.22,-000.03,19.4,26.2,,00.0,0637.8,30.9
2021-11-16T13:08:00Z,00000200,01000000,0000.02,0000.20,0000.20,0000.21,-000.25,0000.37,0000.11,-000.09,0000.11,19.4,26.2,,00.0,0637.8,30.9
2021-11-16T13:09:00Z,00000200,01000000,0000.51,0000.47,0000.20,0000.56,-000.05,-000.16,-000.00,0000.22,0000.21,19.4,26.1,,00.0,0637.8,30.9
2021-11-16T13:10:00Z,00000200,01000000,0000.53,0000.37,0000.24,0000.07,0000.10,-000.11,0000.32,-000.23,-000.31,19.4,26.1,,00.0,0637.8,30.9
2021-11-16T13:11:00Z,00000200,01000000,0000.42,0000.25,0000.31,0000.57,0000.04,-000.09,-000.04,0000.47,0000.36,19.4,26.1,,00.0,0637.9,30.9
2021-11-16T13:12:00Z,00000200,01000000,0000.15,0000.39,0000.18,0000.01,0000.38,0000.70,-000.05,-000.12,-000.13,19.4,26.1,,00.0,0637.9,31.0
2021-11-16T13:13:00Z,00000200,01000000,0000.18,0000.15,0000.02,0000.49,0000.24,0000.29,0000.35,-000.10,0000.31,19.4,26.1,,00.0,0637.9,30.9
2021-11-16T13:14:00Z,00000200,01000000,0000.25,0000.28,0000.07,-000.06,-000.18,0000.33,-000.00,0000.10,-000.09,19.3,26.1,,00.0,0637.9,30.9
2021-11-16T13:15:00Z,00000200,01000000,0000.36,0000.32,0000.17,0000.20,0000.07,-000.08,-000.01,0000.35,-000.10,19.2,26.1,,00.0,0638.0,30.9
2021-11-16T13:16:00Z,00000200,01000000,0000.58,0000.56,0000.32,0000.10,0000.08,0000.06,0000.30,-000.28,0000.20,19.1,26.0,,00.0,0638.0,30.9
2021-11-16T13:17:00Z,00000200,01000000,-000.14,0000.37,0000.18,0000.25,-000.07,0000.08,-000.14,0000.20,-000.17,19.1,25.9,,00.0,0638.0,30.8
2021-11-16T13:18:00Z,00000200,01000000,0000.44,0000.11,0000.12,0000.09,0000.31,0000.22,0000.25,0000.02,0000.17,19.0,25.9,,00.0,0638.0,30.8
2021-11-16T13:19:00Z,00000200,01000000,-000.13,-000.16,0000.19,0000.31,-000.02,0000.02,-000.11,0000.56,0000.19,18.9,25.8,,00.0,0638.0,30.8
2021-11-16T13:20:00Z,00000200,01000000,-000.01,-000.02,-000.09,0000.21,0000.14,-000.35,0000.13,-000.40,-000.28,18.8,25.7,,00.0,0638.1,30.8
2021-11-16T13:21:00Z,00000200,01000000,-000.07,0000.41,0000.26,0000.61,-000.04,0000.22,0000.16,0000.11,0000.27,18.8,25.7,,00.0,0638.1,30.8
2021-11-16T13:22:00Z,00000200,01000000,0000.83,0000.53,0000.30,-000.13,0000.34,0000.12,0000.17,0000.02,0000.26,18.7,25.7,,00.0,0638.1,30.8
2021-11-16T13:23:00Z,00000200,01000000,0000.39,0000.16,0000.09,-000.25,0000.12,0000.30,-000.04,0000.19,-000.39,18.7,25.7,,00.0,0638.1,30.8
2021-11-16T13:24:00Z,00000200,01000000,0000.71,0000.59,0000.17,0000.08,-000.20,0000.08,0000.23,0000.18,0000.50,18.7,25.7,,00.0,0638.1,30.8
2021-11-16T13:25:00Z,00000200,01000000,0000.75,0000.26,0000.53,0000.00,0000.34,0000.41,0000.04,0000.13,-000.25,18.7,25.7,,00.0,0638.1,30.9
2021-11-16T13:26:00Z,00000200,01000000,-000.01,0000.30,-000.13,0000.30,0000.07,-000.28,0000.44,0000.44,0000.48,18.8,25.7,,00.0,0638.1,30.9
2021-11-16T13:27:00Z,00000200,01000000,0000.19,0000.39,0000.25,0000.34,-000.09,0000.26,0000.13,0000.18,0000.00,18.8,25.7,,00.0,0638.1,30.9
2021-11-16T13:28:00Z,00000200,01000000,0000.76,0000.19,0000.19,0000.21,0000.22,0000.17,0000.29,0000.13,0000.19,18.8,25.7,,00.0,0638.1,30.9
2021-11-16T13:29:00Z,00000200,01000000,0000.19,-000.05,0000.33,-000.09,-000.13,0000.25,0000.04,0000.03,0000.13,18.8,25.7,,00.0,0638.1,30.9
2021-11-16T13:30:00Z,00000200,01000000,0000.12,0000.32,0000.01,0000.57,0000.03,0000.07,0000.24,0000.40,-000.07,18.8,25.7,,00.0,0638.2,30.9
2021-11-16T13:31:00Z,00000200,01000000,0000.52,-000.00,0000.22,0000.91,-000.21,-000.03,0000.26,0000.22,0000.17,18.9,25.7,,00.0,0638.2,30.9
2021-11-16T13:32:00Z,00000200,01000000,0000.82,0000.44,0000.30,0000.40,-000.24,0000.19,-000.10,-000.13,0000.14,18.9,25.7,,00.0,0638.2,30.9
2021-11-16T13:33:00Z,00000200,01000000,0000.78,0000.27,-000.09,-000.36,0000.03,-000.20,0000.22,0000.46,0000.09,19.0,25.8,,00.0,0638.2,30.9
2021-11-16T13:34:00Z,00000200,01000000,0000.96,0000.55,0000.13,0000.14,0000.14,0000.26,0000.12,-000.23,0000.20,19.0,25.7,,00.0,0638.2,30.9
2021-11-16T13:35:00Z,00000200,01000000,0000.39,0000.06,0000.21,0000.35,0000.08,0000.03,0000.16,0000.38,0000.25,19.0,25.8,,00.0,0638.2,30.9
2021-11-16T13:36:00Z,00000200,01000000,0001.11,0000.41,0000.34,0000.10,-000.26,0000.19,0000.40,0000.07,-000.10,19.0,25.8,,00.0,0638.2,30.9
2021-11-16T13:37:00Z,00000200,01000000,0000.36,0000.45,-000.02,0000.38,0000.22,0000.55,0000.11,-000.03,0000.24,19.0,25.8,,00.0,0638.2,30.9
2021-11-16T13:38:00Z,00000200,01000000,0000.17,-000.06,0000.07,-000.14,0000.08,-000.15,0000.14,0000.34,0000.15,19.0,25.8,,00.0,0638.1,31.0
2021-11-16T13:39:00Z,00000200,01000000,0000.03,0000.46,0000.07,0000.82,-000.06,0000.03,0000.13,-000.07,0000.08,19.0,25.8,,00.0,0638.1,30.9
2021-11-16T13:40:00Z,00000200,01000000,0000.51,0000.56,0000.09,0000.58,0000.15,0000.28,0000.34,0000.28,-000.18,19.1,25.8,,00.0,0638.1,30.9
2021-11-16T13:41:00Z,00000200,01000000,0000.52,0000.30,-000.17,0000.77,0000.00,-000.16,0000.22,0000.13,0000.24,19.1,25.8,,00.0,0638.1,31.0
2021-11-16T13:42:00Z,00000200,01000000,-000.11,0000.32,0000.04,-000.12,0000.40,-000.11,-000.32,-000.14,0000.24,19.1,25.8,,00.0,0638.1,30.9
2021-11-16T13:43:00Z,00000200,01000000,-000.06,-000.26,0000.08,0000.53,0000.12,-000.09,0000.50,0000.57,0000.22,19.2,25.9,,00.0,0638.1,31.0
2021-11-16T13:44:00Z,00000200,01000000,0000.11,0000.25,0000.29,0000.34,0000.01,-000.03,-000.21,0000.02,0000.02,19.2,25.9,,00.0,0638.1,31.0
2021-11-16T13:45:00Z,00000200,01000000,0000.10,0000.18,0000.37,0000.58,0000.06,0000.12,0000.19,0000.32,-000.02,19.2,25.9,,00.0,0638.1,31.0
2021-11-16T13:46:00Z,00000200,01000000,0000.24,0000.08,0000.16,-000.33,0000.10,-000.00,0000.08,-000.51,0000.12,19.2,25.9,,00.0,0638.1,31.0
2021-11-16T13:47:00Z,00000200,01000000,0000.74,0000.30,0000.13,0000.36,0000.05,0000.01,0000.55,0000.40,0000.30,19.1,25.9,,00.0,0638.1,30.9
2021-11-16T13:48:00Z,00000200,01000000,0000.21,0000.18,0000.24,0000.39,0000.30,0000.08,-000.06,0000.16,-000.09,19.1,25.8,,00.0,0638.0,30.9
2021-11-16T13:49:00Z,00000200,01000000,-000.26,0000.11,0000.14,0000.26,0000.26,-000.01,0000.16,0000.01,0000.23,19.0,25.8,,00.0,0638.1,30.9
2021-11-16T13:50:00Z,00000200,01000000,0000.16,0000.23,0000.19,0000.54,0000.04,0000.13,0000.07,0000.39,0000.17,18.9,25.8,,00.0,0638.1,30.8
2021-11-16T13:51:00Z,00000200,01000000,0000.08,0000.03,0000.30,0000.27,-000.01,-000.34,0000.14,-000.08,-000.15,18.9,25.7,,00.0,0638.1,30.8
2021-11-16T13:52:00Z,00000200,01000000,0000.64,-000.01,0000.25,0000.55,0000.28,0000.31,-000.19,0000.26,0000.21,18.9,25.7,,00.0,0638.0,30.9
2021-11-16T13:53:00Z,00000200,01000000,0000.09,0000.11,0000.04,0000.19,0000.07,0000.11,0000.35,0000.18,-000.03,18.9,25.7,,00.0,0638.0,30.9
2021-11-16T13:54:00Z,00000200,01000000,0000.30,0000.28,0000.16,-000.53,0000.10,-000.03,0000.37,0000.17,0000.47,18.9,25.7,,00.0,0638.0,30.9
2021-11-16T13:55:00Z,00000200,01000000,0000.36,0000.42,-000.07,0000.16,0000.02,-000.32,-000.03,0000.34,0000.05,18.9,25.7,,00.0,0638.0,30.9
2021-11-16T13:56:00Z,00000200,01000000,0000.16,0000.22,0000.22,-000.25,0000.22,0000.04,0000.35,-000.00,0000.05,18.9,25.8,,00.0,0638.0,30.9
2021-11-16T13:57:00Z,00000200,41000000,,,,,,,-000.28,-000.26,-000.32,19.0,25.8,,00.0,0638.2,30.9
2021-11-16T13:58:00Z,00000200,61000000,,,,,,,0000.31,-000.03,0000.04,18.7,25.9,,00.0,0637.1,30.9
2021-11-16T13:59:00Z,00000200,21000000,,,,,,,0000.01,0000.12,0000.33,18.7,26.0,,00.0,0637.1,30.9
